Location: Lecco
(45.8566°N, 9.3977°E)
Time: 08:17:04
(UTC+02:00)

Altair - Pass Details

Date: 16 August 2020
Orbit: 1501 x 1682 km, 47.2° (Epoch: 25 September)

Event Time Altitude Azimuth Distance (km) Brightness Sun altitude
Rises 10:50:10 0° 285° (WNW) 4,660 9.6 43.9°
Reaches altitude 10° 10:55:52 10° 257° (WSW) 3,655 9.3 44.7°
Maximum altitude 10:58:53 12° 237° (WSW) 3,488 9.3 45.2°
Drops below altitude 10° 11:01:55 10° 217° (SW) 3,644 9.6 45.6°
Sets 11:07:37 0° 190° (S) 4,629 10.3 46.4°
